Home > Weather > Barquisimeto > Past weeks

Flag for Venezuela Weather for the Past 2 Weeks in Barquisimeto, Venezuela

Now
72 °F

Passing clouds.


Feels Like: 69 °F
Forecast: 68 / 94 °F
Wind: N/A

Location: Barquisimeto Airport

Current Time: Feb 10, 2016 at 4:57:54 AM

Latest Report: Feb 10, 2016 at 1:30 AM


Visibility: N/A

Pressure: 30.04 "Hg (28.12 "Hg at 569m altitude)

Humidity: 88%

Dew point: 68 °F

Location of BarquisimetoLocation

Historic Weather in Barquisimeto — Graph

°F

Barquisimeto Temperature Yesterday

Maximum temperature yesterday: 91 °F (at 1:30 PM)
Minimum temperature yesterday: 70 °F (at 5:30 AM)
Average temperature yesterday: 81 °F

High & Low Weather Summary for the Past Weeks

 TemperatureHumidityPressure
High129 °F (Feb 2, 9:30 AM)100% (Jan 31, 6:30 AM)30.12 "Hg (Jan 31, 6:30 AM)
Low66 °F (Feb 4, 5:30 AM)13% (Feb 2, 9:30 AM)29.89 "Hg (Jan 31, 5:30 PM)
Average79 °F65%30.00 "Hg
* Reported Jan 26 5:30 AM — Feb 10 1:30 AM, Barquisimeto, Weather by CustomWeather, © 2016

Note: Actual official high and low records may vary slightly from our data, if they occured in-between our weather recording intervals... More about our weather records

Advertising

Barquisimeto Weather History for the Previous 24 Hours

 ConditionsComfort  
Time TempWeatherWind HumidityBarometerVisibility
1:30 AM
Wed, Feb 10
72 °FPassing clouds.N/A88%30.04 "HgN/A
10:30 PM
Tue, Feb 9
75 °FPassing clouds.6 mph78%30.04 "HgN/A
9:30 PM77 °FPassing clouds.6 mph74%30.04 "HgN/A
8:30 PM79 °FPassing clouds.6 mph61%30.01 "HgN/A
7:30 PM82 °FPassing clouds.7 mph58%29.98 "HgN/A
6:30 PM86 °FPassing clouds.5 mph49%29.98 "HgN/A
5:30 PM88 °FPassing clouds.7 mph43%29.98 "HgN/A
4:30 PM90 °FPassing clouds.9 mph41%29.98 "HgN/A
3:30 PM91 °FPassing clouds.13 mph38%29.98 "HgN/A
2:30 PM91 °FScattered clouds.14 mph38%29.98 "HgN/A
1:30 PM91 °FScattered clouds.12 mph38%30.01 "HgN/A
12:30 PM88 °FScattered clouds.12 mph43%30.04 "HgN/A
11:30 AM86 °FPassing clouds.10 mph49%30.04 "HgN/A
10:30 AM82 °FPassing clouds.7 mph55%30.07 "HgN/A
9:30 AM79 °FPassing clouds.9 mph61%30.07 "HgN/A
8:30 AM75 °FPassing clouds.8 mph74%30.07 "HgN/A
7:30 AM70 °FFog.6 mph88%30.04 "Hg5 mi
6:30 AM70 °FFog.3 mph88%30.01 "Hg6 mi
5:30 AM70 °FPassing clouds.5 mph88%29.98 "HgN/A
Weather by CustomWeather, © 2016

See weather overviewHow to use our weather pages